WetterOnline ( https://www.wetteronline.de )

Wetter aktuell Ulm

Aktuelles Wetter: Ulm-Mähringen (592m)

6-stündlich | Neueste Meldungen
Ortszeit Temperatur Wetter
Sa, 24.08. 14:00 23.0° C bewölkt
Sa, 24.08. 8:00 16.6° C bedeckt
Sa, 24.08. 2:00 15.9° C bedeckt
Fr, 23.08. 20:00 20.5° C wolkig
Fr, 23.08. 14:00 21.0° C fast wolkenlos
Fr, 23.08. 8:00 12.7° C wolkenlos
Fr, 23.08. 2:00 9.6° C wolkenlos
Do, 22.08. 20:00 18.9° C wolkenlos
Ortszeit Temperatur Wetter
Sa, 24.08. 16:00 24.4° C leicht bewölkt
Sa, 24.08. 15:50 24.4° C leicht bewölkt
Sa, 24.08. 15:40 23.5° C leicht bewölkt
Sa, 24.08. 15:30 24.1° C fast wolkenlos
Sa, 24.08. 15:20 24.1° C wolkenlos
Sa, 24.08. 15:10 23.7° C wolkenlos
Sa, 24.08. 15:00 23.6° C leicht bewölkt
Sa, 24.08. 14:30 22.9° C bewölkt
Sa, 24.08. 14:00 23.0° C bewölkt
Sa, 24.08. 13:30 22.4° C wolkig
Sa, 24.08. 13:00 22.2° C bewölkt
Ortszeit Relative Feuchte Sichtweite
Sa, 24.08. 14:00 61% 21 km
Sa, 24.08. 8:00 84% 17 km
Sa, 24.08. 2:00 87% 12 km
Fr, 23.08. 20:00 63% 30 km
Fr, 23.08. 14:00 53% 28 km
Fr, 23.08. 8:00 89% 6 km
Fr, 23.08. 2:00 96% 11 km
Do, 22.08. 20:00 61% 70 km
Ortszeit Relative Feuchte Sichtweite
Sa, 24.08. 16:00 57% 22 km
Sa, 24.08. 15:50 57% -
Sa, 24.08. 15:40 57% -
Sa, 24.08. 15:30 58% 20 km
Sa, 24.08. 15:20 58% -
Sa, 24.08. 15:10 61% -
Sa, 24.08. 15:00 58% 20 km
Sa, 24.08. 14:30 58% 26 km
Sa, 24.08. 14:00 61% 21 km
Sa, 24.08. 13:30 63% 21 km
Sa, 24.08. 13:00 62% 19 km
Ortszeit Niederschlagsmenge Niederschlagsart
Sa, 24.08. 14:00 0.0 l/m2 in 6 Std. -
Sa, 24.08. 8:00 0.0 l/m2 in 12 Std. -
Sa, 24.08. 2:00 0.0 l/m2 in 6 Std. -
Fr, 23.08. 20:00 0.0 l/m2 in 12 Std. -
Fr, 23.08. 14:00 0.0 l/m2 in 6 Std. -
Fr, 23.08. 8:00 0.0 l/m2 in 12 Std. -
Fr, 23.08. 2:00 0.0 l/m2 in 6 Std. -
Do, 22.08. 20:00 0.0 l/m2 in 12 Std. -
Ortszeit Niederschlagsmenge Niederschlagsart
Sa, 24.08. 16:00 0.0 l/m2 in 1 Std. -
Sa, 24.08. 15:50 keine Meldung -
Sa, 24.08. 15:40 keine Meldung -
Sa, 24.08. 15:30 0.0 l/m2 in 1 Std. -
Sa, 24.08. 15:20 keine Meldung -
Sa, 24.08. 15:10 keine Meldung -
Sa, 24.08. 15:00 0.0 l/m2 in 1 Std. -
Sa, 24.08. 14:30 0.0 l/m2 in 1 Std. -
Sa, 24.08. 14:00 0.0 l/m2 in 1 Std. -
Sa, 24.08. 13:30 0.0 l/m2 in 1 Std. -
Sa, 24.08. 13:00 0.0 l/m2 in 1 Std. -
Ortszeit Stärke Spitze Richtung
km/h Bft. km/h Grad Sektor
Sa, 24.08. 14:00 9 2 17 60° NO
Sa, 24.08. 8:00 4 1 11 340° N
Sa, 24.08. 2:00 7 2 11 10° N
Fr, 23.08. 20:00 9 2 35 100° O
Fr, 23.08. 14:00 18 3 32 80° O
Fr, 23.08. 8:00 6 1 6 360° N
Fr, 23.08. 2:00 4 1 11 300° NW
Do, 22.08. 20:00 9 2 33 80° O
Ortszeit Stärke Spitze Richtung
km/h Bft. km/h Grad Sektor
Sa, 24.08. 16:00 6 1 19 330° NW
Sa, 24.08. 15:50 6 1 - 330° NW
Sa, 24.08. 15:40 7 2 - 40° NO
Sa, 24.08. 15:30 9 2 19 30° NO
Sa, 24.08. 15:20 9 2 - 30° NO
Sa, 24.08. 15:10 11 2 - 40° NO
Sa, 24.08. 15:00 7 2 14 60° NO
Sa, 24.08. 14:30 6 1 15 20° N
Sa, 24.08. 14:00 9 2 17 60° NO
Sa, 24.08. 13:30 11 2 14 50° NO
Sa, 24.08. 13:00 9 2 15 40° NO
Ortszeit Untergrenze Bedeckung Gattung
total tief tief mittel hoch
Sa, 24.08. 14:00 1050 m 7/8 7/8 - - -
Sa, 24.08. 8:00 1020 m 8/8 8/8 - - -
Sa, 24.08. 2:00 1080 m 8/8 8/8 - - -
Fr, 23.08. 20:00 1200 m 5/8 5/8 - - -
Fr, 23.08. 14:00 1080 m 1/8 1/8 - - -
Fr, 23.08. 8:00 - 0/8 0/8 - - -
Fr, 23.08. 2:00 - 0/8 0/8 - - -
Do, 22.08. 20:00 - 0/8 0/8 - - -
Ortszeit Bedeckungsgrad in Achtel und Wolkenuntergrenze
Sa, 24.08. 16:00 3(1080m)
Sa, 24.08. 15:50 3(1080m)
Sa, 24.08. 15:40 4(1110m)
Sa, 24.08. 15:30 4(1020m)
Sa, 24.08. 15:20 keine Wolken
Sa, 24.08. 15:10 keine Wolken
Sa, 24.08. 15:00 3(1020m)
Sa, 24.08. 14:30 5(960m) 7(1170m)
Sa, 24.08. 14:00 7(1050m) 7(1170m)
Sa, 24.08. 13:30 4(900m) 6(1080m)
Sa, 24.08. 13:00 6(810m) 7(990m)
Ortszeit Luftdruck NN (hPa) Tendenz (hPa in 3 Std.)
Sa, 24.08. 14:00 1019 - 0,4
Sa, 24.08. 8:00 1021 0,0
Sa, 24.08. 2:00 1022 - 1,0
Fr, 23.08. 20:00 1022 - 0,3
Fr, 23.08. 14:00 1023 - 0,9
Fr, 23.08. 8:00 1026 0,0
Fr, 23.08. 2:00 1027 - 0,3
Do, 22.08. 20:00 1024 + 0,3
Ortszeit Luftdruck NN (hPa) Tendenz (hPa in 3 Std.)
Sa, 24.08. 16:00 1018 - 0,5
Sa, 24.08. 15:50 1018 keine Meldung
Sa, 24.08. 15:40 1018 keine Meldung
Sa, 24.08. 15:30 1018 - 0,5
Sa, 24.08. 15:20 1018 keine Meldung
Sa, 24.08. 15:10 1018 keine Meldung
Sa, 24.08. 15:00 1019 - 0,5
Sa, 24.08. 14:30 1019 - 0,5
Sa, 24.08. 14:00 1019 - 0,4
Sa, 24.08. 13:30 1019 - 0,5
Sa, 24.08. 13:00 1019 - 0,4
Ortszeit Schneehöhe (cm)
Sa, 24.08. 14:00 -
Sa, 24.08. 8:00 -
Sa, 24.08. 2:00 -
Fr, 23.08. 20:00 -
Fr, 23.08. 14:00 -
Fr, 23.08. 8:00 -
Fr, 23.08. 2:00 -
Do, 22.08. 20:00 -
Ortszeit Schneehöhe (cm)
Sa, 24.08. 16:00 -
Sa, 24.08. 15:50 -
Sa, 24.08. 15:40 -
Sa, 24.08. 15:30 -
Sa, 24.08. 15:20 -
Sa, 24.08. 15:10 -
Sa, 24.08. 15:00 -
Sa, 24.08. 14:30 -
Sa, 24.08. 14:00 -
Sa, 24.08. 13:30 -
Sa, 24.08. 13:00 -
Link zu dieser Seite / Seite empfehlen

Das Wetter in ...